Vorticity
5 5 5 5 5 4 3 2 3 4 6 6 6 8 11 12 7 5 10 4 -5 -2 3 8 11 7 11 10 2 9 12 6 6 7 5 0 -3 3 12 3 -6 4 6 1 2 1 -0 5 12 11 2 -2 9 17 14 11 1 -1 7 2 5 7 3 6 4 6 4 -4 3 7 3 4 4 4 6 5 5 6 6 8 7 6 7 8 8 7 7 7
6 5 5 4 4 5 4 2 2 2 4 5 5 7 9 11 12 7 7 11 3 -2 4 5 3 -1 4 17 11 7 12 10 6 6 6 -2 -3 5 7 5 -3 -2 6 2 0 1 -1 1 10 14 5 -2 6 15 7 5 0 -4 8 6 3 7 4 6 5 7 7 -3 -1 4 4 4 5 5 5 6 5 6 7 7 7 7 8 7 6 7 7 6
6 6 4 4 4 4 5 4 2 2 2 4 4 4 7 9 11 11 8 12 9 -1 1 2 6 3 -3 14 20 13 12 10 10 5 5 0 -6 4 6 4 3 -1 2 3 1 2 2 -1 4 13 9 0 3 12 5 -1 -6 -12 5 8 2 7 5 7 6 6 9 4 -0 1 2 2 4 7 5 6 6 6 7 7 7 7 8 7 6 6 7 6
6 6 5 4 4 3 4 4 4 3 1 2 4 4 4 8 10 13 10 11 13 1 -4 -1 8 6 -10 8 20 11 13 9 11 9 4 4 -4 0 6 4 3 2 3 1 1 3 5 1 1 9 11 4 -1 5 6 1 -4 -9 5 10 2 7 7 7 6 5 8 5 4 2 0 1 2 6 6 5 7 7 6 7 7 6 7 7 7 6 7 7
6 5 6 5 4 4 3 3 4 4 3 1 2 4 2 4 8 12 11 10 15 8 -1 -2 9 6 -17 7 25 5 11 12 8 12 7 5 1 -2 2 5 3 0 5 3 -1 1 5 2 -0 5 11 11 1 -2 0 3 4 -5 5 14 2 4 9 8 4 1 7 5 4 6 1 1 2 3 5 5 6 6 5 7 7 5 6 6 7 7 7 8
7 6 7 6 4 4 3 3 3 2 4 3 0 3 3 3 4 9 13 11 14 14 5 -7 3 13 -21 -12 24 7 5 16 10 11 10 6 3 1 -2 1 4 -1 4 6 -2 -3 6 7 1 2 8 12 7 -0 -3 3 11 1 3 9 0 4 5 4 5 -1 4 6 2 5 4 2 1 3 4 4 7 5 4 7 6 5 6 6 6 6 6 7
7 7 7 7 5 4 4 3 3 3 3 4 1 1 2 3 2 5 11 12 13 15 13 -4 -7 19 -3 -25 8 14 3 12 16 11 9 8 4 5 1 -1 3 -3 1 8 0 -4 5 10 3 1 6 7 5 3 1 4 14 10 3 -7 -11 8 8 -3 5 3 1 5 3 2 5 4 1 3 3 4 7 4 4 6 5 6 6 7 6 5 5 6
9 8 7 7 7 5 5 4 3 3 2 3 2 1 1 3 3 1 7 12 14 13 16 6 -13 6 18 -3 1 11 5 8 17 15 9 7 6 6 4 4 1 -9 5 16 7 3 5 10 6 -0 4 5 3 3 1 4 13 11 2 -13 -18 5 17 3 2 7 4 3 4 1 3 4 2 3 3 4 7 4 4 6 5 6 6 7 7 5 4 4
15 12 9 7 8 7 6 5 3 3 2 2 2 2 1 2 4 1 3 9 14 16 16 12 -9 -15 1 4 7 15 15 16 19 19 13 5 6 9 3 9 -2 -14 15 17 -6 -1 4 11 12 2 1 3 4 7 4 3 8 9 2 -8 -13 -2 13 10 2 6 9 4 5 2 0 4 3 3 3 5 8 3 3 6 5 5 6 6 7 7 5 3
17 15 14 10 8 8 8 7 5 4 3 2 2 3 1 1 4 2 2 5 12 16 16 17 0 -18 -21 -24 -3 22 18 17 21 16 15 8 5 9 3 11 -1 -19 10 12 -14 -4 5 11 15 6 3 1 1 8 10 6 3 9 9 2 0 0 3 8 5 4 7 5 6 4 -0 2 4 3 4 6 6 3 3 4 5 5 5 6 6 7 6 5
17 17 19 18 15 12 9 8 7 6 4 2 2 2 2 1 2 4 2 2 10 14 16 20 9 -6 -12 -30 -17 19 12 7 21 15 13 11 6 9 4 10 5 -20 -6 11 -1 -1 2 7 13 9 6 4 2 1 6 9 3 6 12 7 8 7 -0 4 7 3 4 5 6 6 1 0 4 5 4 6 5 3 4 3 5 5 5 5 6 7 6 6
15 15 17 19 22 21 16 11 8 7 6 4 3 1 2 2 1 3 4 2 5 14 16 18 17 4 -2 -10 -19 -1 7 2 14 18 15 13 6 8 5 9 11 -14 -16 10 13 4 1 2 6 10 8 5 4 -1 -1 8 5 5 10 9 11 12 1 0 8 7 3 3 7 5 1 2 7 7 3 3 5 5 4 4 5 5 6 5 5 7 6 6
15 11 11 12 16 22 24 24 18 12 8 6 6 2 0 3 3 1 3 5 1 10 19 16 20 10 3 8 -16 -23 2 7 9 15 16 15 8 6 5 7 14 -3 -20 -2 14 10 4 -1 -0 8 10 5 5 0 -4 4 5 1 9 12 10 13 5 -6 -1 10 5 -3 3 6 2 3 7 6 2 1 4 7 6 5 5 4 5 5 5 6 6 6
16 14 14 15 16 17 19 25 28 25 17 9 7 4 -0 -0 5 3 -1 6 3 5 18 18 16 10 8 11 -13 -27 -9 -0 6 12 13 16 10 5 7 4 9 9 -13 -17 2 7 2 0 -1 2 7 5 4 2 -4 2 6 -2 5 13 11 12 5 -9 -11 1 9 -0 -2 6 2 -1 4 4 3 3 2 4 7 7 7 5 4 5 5 6 6 7
12 14 16 14 12 12 13 17 23 31 32 21 10 5 3 -2 1 8 1 1 6 5 13 22 16 8 13 15 -4 -16 -13 -10 -2 6 13 21 13 3 8 5 4 13 -2 -17 -0 9 5 10 7 -1 4 6 4 3 -4 -2 8 3 -1 4 13 13 -0 -2 -2 -4 8 9 2 6 3 -4 0 1 0 4 3 2 6 7 7 7 5 5 5 5 6 7
12 10 11 11 9 10 14 17 18 24 34 35 24 9 2 -0 -2 5 7 2 5 7 10 19 19 8 13 21 7 -9 -11 -7 -1 3 6 17 20 4 3 7 1 11 7 -12 -2 12 8 8 7 1 3 6 6 7 -1 -6 3 8 3 -2 6 13 5 5 6 -3 4 10 2 5 10 5 1 1 0 2 4 3 5 7 8 7 5 6 6 6 5 6
16 14 11 9 8 9 8 9 10 12 21 32 36 22 5 1 -1 0 8 6 3 8 11 15 20 11 8 19 16 0 -7 -8 -3 7 4 9 22 8 1 7 -1 6 14 -7 -11 12 14 -3 -4 7 9 5 6 10 3 -5 -3 3 6 4 2 7 12 10 2 -0 8 10 -1 -3 9 11 2 2 3 -1 -1 1 5 8 9 9 7 6 6 6 6 5
15 16 14 10 8 8 5 3 5 8 15 23 33 35 17 1 -3 -2 6 8 3 5 10 13 17 14 5 11 16 6 -1 -6 -8 0 4 9 21 12 -0 6 3 3 13 -1 -20 -0 22 10 -4 -1 4 4 4 7 6 -0 -1 -1 0 5 6 4 10 14 5 0 8 14 6 -2 2 6 3 4 2 -2 -2 -3 1 5 8 10 9 7 8 7 7 6
13 11 11 11 9 9 8 6 5 10 18 20 26 35 27 10 0 -0 5 10 5 -0 6 10 10 14 9 10 17 6 -2 2 -5 -13 -5 8 20 20 6 4 7 2 7 8 -15 -23 2 22 14 -1 -2 2 -0 3 7 4 0 0 0 0 4 5 6 12 8 3 8 12 10 4 1 2 4 3 -1 0 5 3 1 1 1 7 9 6 8 8 6 7
12 10 8 6 9 13 14 16 16 20 24 24 25 28 25 16 6 6 8 12 11 -1 5 13 8 12 9 9 23 11 -6 3 2 -13 -11 3 13 19 16 9 9 7 4 8 4 -18 -26 -1 18 11 7 5 -3 -0 6 7 3 0 1 -2 -0 4 6 9 6 4 9 10 9 11 8 6 5 -0 -2 2 7 9 6 1 -3 2 8 6 6 8 6 6
8 7 9 9 13 17 19 23 25 27 28 26 24 25 28 18 5 7 5 7 16 7 7 13 5 12 8 2 25 22 -2 0 7 -5 -13 -2 6 6 14 13 7 14 14 2 4 3 -14 -10 6 6 7 4 -1 4 6 6 6 4 1 -3 -1 2 3 8 6 1 7 8 7 14 16 11 5 -1 0 5 10 14 8 2 -1 -1 6 6 5 8 8 7
12 9 15 19 19 22 22 23 25 27 27 26 25 28 32 21 4 6 3 3 14 7 8 7 -8 12 18 -0 18 30 7 -0 9 7 -8 -7 -1 -5 2 14 8 6 16 10 -1 6 8 1 -4 -4 1 1 0 5 6 7 7 6 4 -2 -2 0 -0 7 8 1 5 8 4 12 19 13 6 3 2 5 13 19 10 0 -0 -0 3 5 5 7 8 10
8 13 21 23 25 30 29 26 25 24 26 27 26 28 28 25 17 9 4 13 23 12 13 11 -17 -2 23 5 4 20 14 7 11 13 1 -9 -4 -4 -10 6 19 1 -2 13 5 5 15 3 -11 -7 -1 -1 2 6 5 7 8 6 5 2 0 -2 -3 3 6 4 6 9 3 7 19 14 8 9 5 1 5 13 11 2 -0 2 2 2 3 6 6 10
16 21 23 24 25 28 30 32 26 20 31 33 27 29 23 24 31 18 3 9 24 17 14 20 -5 -16 12 13 -1 5 12 11 12 17 14 -2 -5 5 -8 -9 23 20 -2 4 6 6 12 3 -6 -2 1 0 3 7 5 4 7 7 5 4 4 2 1 1 2 4 7 11 6 5 16 15 9 12 11 6 3 5 9 5 1 1 1 0 1 4 2 5
24 21 19 22 24 24 25 29 26 27 42 38 27 34 26 19 22 17 14 11 16 20 12 19 13 -14 -10 9 8 4 5 7 13 15 18 13 -3 5 7 -11 9 29 12 4 6 6 7 1 1 4 4 4 2 3 5 6 5 6 6 5 5 4 4 4 1 0 5 10 6 4 14 11 6 14 17 14 10 3 5 8 5 2 1 -2 -3 -0 0 1
22 24 21 19 21 22 20 27 34 31 32 25 20 27 26 29 20 4 12 16 12 22 17 12 21 3 -21 -7 13 11 5 7 12 4 10 31 16 6 20 -0 -2 24 19 9 8 7 9 3 0 5 5 4 5 3 2 4 4 4 5 6 6 1 -3 1 1 -2 2 10 8 3 9 9 4 11 15 16 17 8 4 6 7 7 6 3 -1 -2 -2 1
19 26 24 19 17 15 17 28 28 17 15 17 20 17 12 25 30 15 15 18 9 16 22 11 19 19 -15 -17 9 11 7 5 2 -4 5 45 40 11 20 5 -6 21 20 8 11 9 8 5 1 3 4 3 4 5 3 3 6 5 3 4 6 4 1 1 0 -2 -3 2 11 6 3 10 8 7 9 10 15 15 11 8 5 6 9 13 16 12 5 3
8 17 24 20 15 13 16 18 10 11 19 16 16 18 10 11 21 22 19 22 13 5 16 15 16 21 -11 -17 9 7 7 8 0 -13 -25 19 50 23 16 5 -12 11 20 10 14 15 7 3 5 3 1 6 3 2 6 6 8 8 4 4 5 7 7 3 -0 1 -4 -7 7 8 3 12 9 -1 3 7 9 13 17 17 12 6 4 8 16 18 16 11
13 19 25 21 15 14 14 12 8 15 21 13 12 15 10 12 20 20 15 21 21 6 10 14 17 22 -10 -15 15 8 4 10 11 1 -38 -25 33 34 20 10 -12 -8 6 10 12 16 12 4 4 3 2 8 6 3 5 5 9 8 5 5 6 8 8 5 3 2 0 -4 -3 -0 2 13 12 -1 1 6 5 7 12 16 16 15 13 11 11 11 12 11
20 21 25 21 16 12 10 15 17 16 12 8 15 14 6 12 14 15 18 20 19 10 11 11 16 26 -6 -17 13 6 3 12 6 17 3 -21 1 28 31 18 2 -7 -7 4 11 12 14 7 0 4 9 7 6 10 8 5 8 7 8 6 4 8 6 7 8 2 6 7 -2 -5 -4 7 17 10 5 6 5 4 5 7 9 12 15 16 16 15 12 10
20 21 17 10 11 14 10 10 13 19 16 3 10 16 14 20 7 -1 18 26 18 8 8 11 17 23 -4 -16 9 2 -1 16 5 7 28 16 -5 8 27 19 9 7 -0 4 14 14 11 8 2 2 7 5 2 9 10 7 7 4 6 5 2 7 5 5 8 4 9 9 2 -0 -2 7 15 4 -2 3 6 6 6 7 6 6 8 11 16 19 20 20
21 22 13 4 6 13 12 5 2 15 18 9 19 18 9 27 19 -6 7 26 26 17 6 6 19 25 -1 -20 2 7 -10 -2 1 -11 5 29 17 -2 6 14 11 9 5 2 7 13 14 12 8 0 2 7 4 4 5 5 6 3 3 2 0 3 4 4 5 5 8 4 2 2 0 10 9 -8 -10 -2 3 8 8 9 9 6 5 6 7 5 4 10
17 17 12 8 4 8 15 12 6 10 10 7 23 19 -3 14 28 7 2 15 25 26 10 1 16 25 3 -21 -6 13 2 -8 -7 -18 -20 9 32 20 3 5 12 8 5 6 4 8 13 13 13 6 1 4 4 6 5 -0 0 2 1 1 1 4 5 7 6 6 6 3 3 2 2 10 6 -3 0 -1 1 8 7 8 11 7 6 5 3 -1 -5 -2
14 13 11 10 6 10 18 20 13 6 7 6 10 18 4 1 21 22 7 10 24 31 16 1 11 18 3 -12 -7 4 9 9 0 -14 -16 -2 19 33 23 6 9 11 4 5 6 9 13 12 14 14 5 -2 -3 0 4 5 9 12 12 9 8 7 7 8 10 9 8 7 6 3 7 13 7 2 2 -2 2 9 8 8 10 8 7 7 5 5 5 6
13 16 18 14 6 10 11 16 18 4 6 13 1 7 14 2 14 25 9 5 18 28 26 16 12 14 6 -3 0 4 3 15 20 -6 -16 2 10 18 25 16 11 11 3 -1 3 12 16 9 10 17 14 7 2 -1 -1 2 7 8 8 10 7 4 2 3 6 5 3 6 7 6 7 6 3 3 1 -1 6 11 10 8 8 10 8 6 6 6 7 8
8 8 15 15 10 17 14 9 16 2 -1 17 6 -1 17 15 12 20 15 8 14 20 25 26 16 10 10 1 0 9 2 9 35 17 -15 1 20 17 19 24 21 13 6 0 -1 9 16 9 10 16 16 14 11 8 4 1 3 5 2 3 6 9 9 8 9 7 5 5 5 6 6 -0 2 6 -0 -1 5 11 16 13 9 10 10 8 9 7 7 8
7 -1 3 9 5 17 24 17 19 7 -8 11 17 4 15 26 16 15 19 11 17 32 28 21 19 14 11 2 -5 -0 0 5 27 29 8 7 20 20 17 23 29 23 13 4 -3 6 17 11 9 12 13 14 12 9 10 5 3 7 5 3 6 8 9 7 7 7 6 8 7 5 4 -0 4 7 -0 0 7 10 17 20 14 10 9 9 10 9 10 9
14 8 7 11 4 6 20 24 24 18 0 5 23 18 15 23 15 17 26 6 1 35 45 22 15 20 9 -9 -13 -11 -9 7 18 14 13 17 14 13 14 18 26 28 22 8 -7 2 16 9 3 8 8 11 13 11 12 11 6 2 2 3 4 5 5 4 3 3 3 7 8 5 4 3 3 3 -1 1 6 6 7 12 13 12 10 8 7 7 8 8
10 12 11 12 10 4 9 16 15 15 9 2 13 23 23 21 8 10 28 16 -6 12 42 35 22 31 19 -16 -19 -8 -17 -8 15 10 0 7 14 13 14 15 16 27 37 16 -13 -7 14 9 1 4 5 7 14 14 8 5 5 2 -1 -1 -3 -1 5 7 7 10 10 11 10 5 6 8 3 -0 -1 -0 5 7 4 3 6 10 10 8 7 5 5 8
4 8 9 8 11 7 5 9 7 8 15 11 6 13 21 23 15 10 14 17 8 0 13 30 34 43 36 -3 -16 2 -6 -22 -1 20 7 -6 4 11 14 17 9 14 35 26 -4 -3 14 14 4 -1 -1 2 7 13 15 11 10 8 3 -1 -6 -9 -5 -0 1 3 4 6 7 6 6 5 1 0 1 3 6 8 6 4 7 11 13 14 14 12 9 8
4 3 7 6 5 7 7 6 3 1 7 13 13 13 15 19 21 22 14 4 6 2 -8 1 28 53 48 10 -12 3 6 -17 -19 12 23 4 -3 1 7 22 20 4 8 16 10 7 9 12 13 5 -1 -0 -2 1 12 17 16 17 16 14 11 8 6 5 1 -1 -1 3 6 9 11 4 -1 2 -0 -4 1 4 3 4 7 11 14 16 15 14 12 10
8 4 6 6 3 5 8 8 8 5 -1 1 8 10 12 15 17 26 29 11 -2 -0 -6 -17 5 58 69 22 -9 4 14 -1 -22 -11 18 18 5 4 2 14 30 16 -4 -3 3 7 7 6 10 11 6 5 3 0 5 10 11 13 17 18 15 14 12 8 6 5 5 7 5 8 17 7 -5 1 0 -6 -1 4 3 6 9 9 10 10 8 8 9 8
8 7 7 6 4 6 7 5 5 6 4 2 4 5 8 12 12 18 32 32 13 1 4 -9 -28 10 67 52 11 11 17 10 -8 -22 -0 20 11 10 10 7 22 31 18 3 -8 -3 12 13 9 8 5 2 1 1 4 7 8 8 11 12 8 7 7 5 8 9 7 9 4 7 21 13 -4 1 3 -3 -0 3 4 8 8 7 6 4 4 4 4 4
5 7 9 6 5 7 6 7 7 6 7 6 4 3 4 5 6 11 20 32 35 17 11 18 -26 -54 12 65 49 32 21 9 3 -12 -8 16 12 5 12 8 9 23 31 27 11 1 11 17 13 8 4 4 2 0 2 3 4 8 11 11 9 8 9 7 6 6 5 6 1 2 16 12 -1 3 3 -3 -2 1 3 5 2 2 4 4 2 1 3 5
5 3 6 6 7 9 6 5 8 7 7 7 6 4 3 5 3 6 10 13 32 34 17 33 21 -42 -28 39 53 47 40 18 8 -0 -2 17 18 4 4 8 9 12 18 29 31 22 14 12 13 10 3 0 -2 -3 3 5 6 10 9 11 13 11 11 11 10 11 11 9 5 5 11 8 2 6 3 -2 2 6 8 10 7 3 3 4 4 5 7 8
8 6 5 4 4 5 6 7 6 6 7 6 9 8 5 10 8 5 11 3 10 30 20 29 52 9 -27 6 30 33 43 37 17 1 1 17 22 11 4 5 12 13 8 14 22 21 15 8 9 12 4 -3 -4 0 8 9 8 10 6 4 8 8 8 8 7 10 13 13 14 14 14 13 9 8 7 5 7 10 9 9 9 5 2 2 4 6 7 6
6 7 8 9 8 4 2 6 3 4 10 6 6 10 6 12 14 6 12 9 0 16 18 20 54 36 -29 -29 14 22 22 36 27 -1 -0 21 23 14 11 5 9 11 2 6 17 16 9 1 0 7 6 4 4 3 6 7 7 13 14 13 13 13 13 10 6 7 7 7 13 13 14 19 13 7 12 10 5 6 4 -0 1 4 4 5 5 5 5 2
7 6 7 6 11 14 8 10 10 6 9 7 1 4 1 0 7 3 8 15 7 12 16 12 41 51 -14 -55 -15 18 15 26 28 -3 -4 25 23 12 13 6 5 9 0 1 13 14 11 9 6 4 2 5 10 6 4 6 6 7 11 14 15 14 17 20 18 17 12 12 18 13 11 21 13 0 7 8 -1 2 2 -1 5 10 9 9 8 5 3 0
7 8 9 3 2 8 7 9 14 10 12 15 9 9 7 1 5 7 8 13 10 10 16 11 22 54 36 -26 -44 -9 19 28 20 -4 -5 20 21 11 13 9 7 10 6 5 9 8 12 17 18 15 5 1 9 13 8 5 1 -2 -2 1 2 2 7 13 15 16 13 14 20 11 4 14 9 -4 2 8 3 2 2 5 15 16 13 14 12 5 1 1
6 4 10 10 3 3 3 1 3 2 2 8 9 11 14 11 11 12 9 12 15 13 17 17 11 28 55 33 -25 -36 6 29 15 -2 -1 11 15 11 10 11 11 8 6 10 12 9 12 12 9 15 13 4 7 12 11 9 6 3 3 2 -1 -2 1 5 7 9 7 8 16 14 9 16 15 6 5 8 10 11 11 10 11 11 12 12 7 3 4 7
8 6 8 10 7 6 7 6 6 5 0 0 1 1 3 5 7 10 11 13 17 20 22 26 23 13 31 59 24 -37 -30 7 8 1 9 12 11 11 6 4 8 8 8 13 15 14 16 13 7 9 10 6 5 4 3 5 4 5 8 7 2 2 5 9 7 4 6 9 13 18 21 23 23 22 19 17 16 16 13 4 -1 6 13 8 1 4 9 10
6 8 7 8 8 7 5 6 7 7 6 5 5 5 4 6 6 2 4 4 3 15 22 26 35 20 7 46 57 -13 -55 -34 -22 -18 3 14 13 14 10 2 1 7 10 14 14 12 12 12 11 12 10 5 3 1 -0 -0 1 6 12 10 9 10 11 14 14 9 10 12 10 14 17 11 11 21 27 25 19 14 13 7 -1 2 6 5 7 12 11 8
Height
5633 5639 5644 5649 5654 5659 5664 5669 5674 5680 5685 5690 5695 5700 5706 5712 5718 5724 5732 5739 5743 5747 5752 5756 5760 5763 5766 5769 5773 5777 5781 5784 5789 5793 5799 5804 5806 5808 5810 5813 5817 5819 5822 5823 5825 5829 5831 5834 5837 5839 5842 5843 5845 5847 5850 5851 5851 5852 5854 5856 5857 5859 5858 5857 5860 5863 5866 5869 5868 5868 5870 5871 5873 5873 5874 5875 5875 5876 5877 5877 5878 5878 5878 5879 5880 5880 5881 5883
5626 5632 5637 5643 5648 5653 5658 5663 5668 5674 5679 5684 5690 5695 5701 5706 5712 5719 5726 5733 5739 5744 5748 5752 5756 5759 5762 5764 5768 5772 5776 5780 5784 5791 5798 5800 5801 5804 5807 5810 5814 5817 5819 5821 5824 5827 5829 5832 5835 5837 5839 5840 5843 5845 5847 5848 5850 5851 5852 5854 5856 5856 5855 5857 5862 5863 5865 5867 5867 5868 5869 5870 5871 5872 5873 5874 5875 5875 5876 5877 5877 5877 5878 5878 5878 5879 5879 5881
5619 5625 5630 5636 5641 5646 5651 5657 5662 5668 5673 5678 5684 5690 5695 5701 5707 5713 5720 5726 5734 5740 5743 5748 5752 5756 5759 5760 5763 5767 5771 5775 5780 5790 5795 5796 5799 5801 5804 5808 5811 5814 5817 5819 5822 5825 5826 5828 5831 5834 5835 5837 5840 5842 5844 5846 5847 5848 5850 5853 5853 5853 5854 5857 5861 5862 5864 5866 5867 5867 5867 5869 5870 5871 5872 5873 5874 5874 5875 5876 5876 5877 5877 5877 5877 5877 5878 5879
5611 5617 5623 5629 5635 5640 5645 5651 5656 5662 5667 5673 5678 5684 5690 5696 5702 5708 5714 5720 5728 5735 5739 5745 5748 5752 5756 5757 5759 5762 5766 5769 5777 5789 5791 5792 5797 5798 5802 5806 5808 5811 5815 5817 5819 5822 5823 5825 5828 5831 5832 5835 5837 5839 5841 5843 5845 5846 5849 5850 5850 5851 5853 5857 5860 5862 5863 5864 5865 5866 5866 5868 5869 5869 5870 5872 5872 5873 5875 5876 5875 5876 5876 5876 5877 5877 5877 5878
5603 5609 5616 5622 5628 5633 5639 5644 5650 5656 5661 5667 5673 5678 5684 5691 5696 5702 5708 5714 5722 5730 5735 5740 5744 5748 5752 5753 5754 5757 5760 5765 5777 5786 5786 5789 5794 5796 5800 5803 5805 5809 5812 5814 5815 5818 5820 5823 5827 5828 5830 5832 5835 5837 5839 5841 5843 5845 5847 5847 5848 5850 5853 5857 5859 5860 5861 5862 5863 5864 5866 5867 5866 5867 5869 5870 5871 5873 5874 5875 5874 5875 5875 5875 5875 5876 5876 5877
5594 5601 5608 5614 5620 5626 5632 5638 5644 5649 5655 5661 5666 5673 5679 5685 5691 5696 5702 5709 5716 5724 5731 5736 5740 5744 5748 5750 5751 5751 5755 5763 5775 5780 5781 5786 5790 5793 5797 5799 5802 5806 5809 5811 5812 5814 5817 5821 5824 5825 5828 5830 5833 5835 5837 5840 5842 5843 5845 5846 5847 5850 5852 5855 5857 5857 5858 5859 5861 5863 5864 5864 5864 5866 5867 5869 5870 5871 5873 5873 5874 5874 5874 5875 5874 5875 5875 5876
5585 5592 5600 5606 5612 5619 5625 5631 5637 5643 5649 5654 5660 5667 5673 5679 5685 5691 5697 5703 5710 5718 5726 5731 5735 5739 5742 5746 5747 5745 5752 5762 5770 5775 5778 5782 5786 5789 5793 5795 5799 5802 5805 5807 5809 5811 5815 5819 5821 5823 5826 5828 5831 5832 5835 5839 5839 5841 5843 5844 5846 5847 5850 5853 5854 5855 5855 5857 5859 5861 5861 5862 5863 5864 5866 5867 5868 5870 5871 5872 5873 5873 5874 5874 5874 5874 5874 5874
5576 5583 5591 5598 5604 5611 5618 5624 5631 5637 5643 5649 5654 5660 5667 5673 5679 5685 5692 5697 5704 5713 5720 5726 5729 5734 5736 5740 5741 5740 5750 5762 5766 5771 5774 5777 5781 5784 5788 5792 5796 5799 5801 5804 5806 5809 5813 5817 5818 5821 5823 5824 5828 5830 5833 5836 5837 5839 5840 5842 5844 5845 5848 5850 5852 5852 5853 5855 5857 5858 5859 5861 5862 5863 5865 5865 5866 5868 5870 5870 5871 5872 5873 5873 5873 5873 5873 5873
5568 5575 5582 5589 5596 5603 5610 5617 5624 5631 5637 5643 5648 5654 5661 5667 5673 5679 5686 5692 5699 5706 5714 5721 5724 5727 5729 5733 5735 5736 5750 5760 5760 5765 5769 5771 5775 5780 5785 5790 5793 5797 5799 5801 5803 5805 5809 5813 5815 5817 5819 5822 5825 5828 5832 5833 5835 5838 5838 5839 5841 5843 5845 5848 5849 5850 5851 5853 5854 5856 5857 5859 5861 5863 5863 5863 5865 5867 5867 5868 5869 5870 5872 5872 5873 5873 5872 5873
5560 5567 5574 5581 5588 5595 5603 5610 5617 5624 5630 5636 5642 5648 5655 5661 5668 5673 5680 5687 5693 5700 5708 5715 5719 5721 5722 5725 5726 5733 5749 5752 5751 5760 5765 5767 5771 5775 5780 5785 5790 5793 5796 5797 5798 5802 5806 5810 5812 5813 5816 5820 5822 5825 5829 5830 5832 5836 5836 5837 5839 5840 5843 5845 5846 5847 5849 5851 5851 5853 5856 5858 5860 5862 5862 5862 5863 5864 5865 5866 5867 5869 5870 5871 5871 5872 5872 5872
5553 5559 5566 5573 5580 5587 5595 5602 5609 5617 5623 5630 5636 5642 5648 5655 5662 5668 5674 5681 5687 5694 5701 5710 5715 5715 5716 5717 5720 5733 5745 5743 5745 5755 5759 5763 5767 5772 5777 5782 5785 5788 5792 5794 5795 5799 5803 5805 5807 5810 5813 5816 5819 5822 5825 5826 5829 5833 5833 5834 5836 5837 5840 5842 5843 5845 5847 5848 5849 5852 5855 5857 5859 5862 5862 5860 5860 5860 5862 5864 5865 5866 5868 5869 5870 5870 5871 5871
5545 5552 5559 5566 5573 5580 5587 5594 5602 5609 5616 5623 5629 5636 5642 5649 5656 5663 5669 5675 5682 5688 5694 5704 5708 5710 5710 5709 5717 5731 5736 5735 5741 5749 5754 5759 5762 5767 5771 5775 5780 5784 5788 5790 5791 5795 5798 5800 5803 5807 5810 5813 5816 5818 5821 5823 5826 5829 5830 5831 5833 5834 5837 5839 5841 5843 5844 5845 5849 5852 5853 5856 5858 5861 5858 5856 5858 5859 5861 5863 5863 5864 5866 5867 5868 5869 5870 5870
5539 5545 5552 5559 5566 5572 5579 5587 5594 5601 5609 5616 5623 5629 5636 5643 5650 5657 5664 5669 5676 5682 5688 5696 5702 5705 5703 5703 5715 5725 5726 5729 5735 5742 5748 5753 5756 5759 5763 5768 5774 5778 5782 5785 5787 5790 5792 5795 5799 5803 5806 5809 5812 5814 5817 5819 5822 5826 5827 5828 5830 5830 5834 5838 5839 5840 5841 5845 5849 5850 5850 5854 5857 5857 5854 5854 5858 5859 5860 5862 5862 5863 5864 5865 5867 5868 5868 5869
5533 5539 5546 5553 5559 5566 5573 5580 5587 5594 5602 5609 5616 5623 5630 5637 5643 5651 5659 5665 5671 5677 5682 5688 5695 5699 5696 5701 5713 5718 5720 5724 5729 5736 5743 5747 5751 5754 5757 5762 5768 5772 5777 5780 5783 5786 5787 5791 5795 5799 5802 5806 5809 5811 5813 5815 5817 5821 5822 5824 5827 5827 5831 5836 5836 5837 5839 5844 5847 5846 5847 5853 5854 5853 5853 5854 5857 5858 5859 5860 5861 5861 5863 5864 5865 5866 5868 5868
5527 5534 5540 5547 5553 5560 5566 5573 5580 5586 5594 5601 5609 5616 5622 5630 5638 5645 5653 5660 5665 5670 5675 5681 5687 5691 5692 5698 5707 5712 5715 5717 5722 5732 5739 5742 5746 5750 5754 5760 5764 5768 5772 5774 5778 5782 5784 5787 5791 5793 5797 5801 5804 5806 5809 5811 5813 5815 5817 5820 5823 5824 5828 5832 5833 5835 5838 5841 5843 5843 5845 5851 5852 5850 5851 5854 5855 5855 5857 5858 5859 5860 5861 5863 5864 5865 5867 5868
5522 5528 5535 5541 5547 5553 5559 5566 5573 5579 5586 5593 5600 5608 5616 5623 5631 5639 5647 5654 5659 5662 5667 5672 5679 5685 5687 5693 5702 5706 5707 5712 5721 5729 5734 5738 5742 5747 5751 5755 5759 5762 5764 5768 5774 5779 5781 5783 5784 5787 5791 5796 5800 5803 5806 5808 5809 5811 5813 5817 5820 5822 5825 5827 5830 5834 5836 5837 5840 5840 5842 5848 5849 5847 5849 5852 5853 5853 5854 5855 5857 5858 5859 5861 5862 5864 5865 5866
5516 5522 5529 5534 5540 5547 5553 5559 5566 5573 5579 5585 5592 5600 5608 5615 5625 5634 5640 5646 5649 5653 5659 5666 5675 5680 5680 5687 5696 5698 5701 5710 5719 5724 5730 5734 5738 5743 5745 5749 5753 5755 5759 5765 5770 5774 5776 5777 5780 5784 5788 5792 5796 5799 5802 5804 5806 5807 5809 5813 5816 5819 5822 5824 5828 5833 5833 5834 5836 5837 5839 5844 5847 5846 5847 5850 5850 5850 5851 5853 5855 5856 5858 5859 5861 5862 5863 5865
5511 5517 5523 5528 5534 5541 5546 5552 5559 5566 5571 5578 5584 5592 5600 5608 5618 5626 5630 5635 5640 5644 5649 5656 5667 5670 5670 5679 5689 5695 5702 5709 5714 5720 5726 5730 5733 5737 5740 5744 5748 5749 5755 5761 5765 5768 5770 5773 5776 5779 5783 5787 5792 5796 5800 5802 5805 5806 5807 5811 5814 5816 5820 5822 5825 5830 5830 5830 5832 5833 5836 5842 5844 5844 5846 5847 5847 5848 5849 5850 5852 5854 5856 5857 5859 5860 5861 5862
5506 5512 5518 5523 5528 5533 5539 5545 5551 5557 5563 5569 5576 5584 5592 5598 5607 5616 5619 5623 5627 5631 5635 5645 5656 5658 5662 5676 5686 5694 5701 5703 5708 5715 5720 5724 5727 5731 5735 5738 5741 5745 5749 5753 5757 5761 5764 5768 5769 5773 5778 5785 5790 5795 5799 5802 5804 5804 5805 5809 5812 5814 5817 5819 5821 5827 5826 5825 5828 5830 5833 5838 5841 5841 5843 5845 5845 5846 5847 5848 5850 5852 5854 5855 5856 5857 5859 5860
5501 5506 5511 5516 5521 5526 5531 5537 5542 5549 5554 5559 5566 5572 5576 5582 5591 5600 5606 5612 5621 5629 5638 5650 5656 5655 5663 5676 5682 5689 5695 5696 5700 5707 5713 5719 5722 5727 5732 5734 5737 5739 5742 5747 5752 5756 5759 5761 5765 5772 5779 5785 5789 5793 5796 5799 5801 5802 5802 5805 5809 5811 5814 5815 5818 5822 5822 5821 5826 5828 5830 5834 5837 5839 5840 5842 5842 5842 5844 5846 5848 5850 5851 5852 5854 5855 5856 5858
5496 5500 5504 5509 5513 5518 5523 5528 5534 5539 5544 5550 5556 5559 5563 5573 5581 5591 5602 5610 5619 5630 5639 5648 5653 5654 5663 5673 5677 5683 5688 5690 5694 5701 5708 5713 5717 5722 5724 5728 5730 5731 5737 5744 5747 5750 5752 5755 5764 5773 5778 5782 5787 5790 5793 5795 5798 5799 5799 5802 5806 5807 5809 5812 5814 5818 5819 5819 5823 5825 5826 5830 5834 5836 5837 5838 5839 5839 5842 5844 5846 5847 5848 5850 5851 5853 5854 5855
5490 5493 5498 5502 5506 5510 5515 5520 5526 5531 5535 5541 5546 5552 5563 5575 5585 5598 5609 5612 5618 5626 5631 5639 5646 5650 5661 5669 5673 5678 5681 5683 5687 5694 5702 5706 5710 5714 5717 5721 5724 5728 5736 5737 5738 5742 5744 5753 5765 5771 5774 5777 5781 5785 5788 5791 5793 5795 5796 5798 5801 5804 5806 5807 5809 5814 5816 5816 5819 5821 5822 5826 5830 5833 5835 5836 5836 5838 5840 5842 5843 5844 5845 5847 5850 5851 5852 5853
5483 5488 5493 5496 5500 5505 5509 5513 5519 5522 5526 5531 5539 5550 5564 5575 5584 5597 5606 5610 5616 5622 5626 5634 5642 5648 5657 5663 5667 5671 5675 5678 5683 5690 5698 5702 5705 5709 5713 5717 5722 5728 5729 5728 5733 5738 5744 5756 5765 5766 5768 5771 5775 5779 5782 5785 5788 5789 5792 5794 5796 5800 5802 5803 5805 5810 5815 5814 5815 5818 5818 5822 5827 5829 5832 5834 5834 5836 5838 5839 5840 5841 5842 5845 5847 5848 5849 5850
5478 5483 5487 5490 5495 5499 5503 5508 5511 5513 5519 5528 5538 5549 5561 5570 5579 5589 5596 5601 5605 5610 5616 5627 5637 5644 5652 5657 5660 5665 5671 5676 5682 5688 5693 5697 5701 5705 5709 5715 5722 5724 5723 5727 5734 5740 5748 5759 5763 5762 5763 5765 5769 5773 5776 5780 5783 5784 5787 5790 5793 5796 5798 5800 5801 5806 5812 5812 5812 5813 5813 5817 5823 5826 5829 5831 5831 5833 5835 5836 5837 5839 5840 5842 5844 5845 5847 5848
5473 5477 5481 5485 5489 5493 5498 5500 5503 5508 5516 5524 5533 5545 5557 5565 5573 5583 5590 5595 5597 5601 5610 5620 5628 5635 5644 5650 5655 5662 5667 5670 5676 5684 5690 5693 5697 5703 5708 5713 5716 5717 5720 5727 5734 5739 5746 5754 5757 5757 5758 5762 5765 5769 5773 5777 5779 5780 5783 5787 5790 5792 5795 5797 5798 5802 5808 5809 5809 5810 5809 5812 5820 5824 5826 5828 5828 5830 5833 5833 5834 5836 5837 5839 5841 5843 5845 5847
5467 5472 5477 5482 5485 5489 5492 5493 5499 5506 5512 5519 5530 5543 5555 5562 5568 5576 5585 5590 5591 5593 5602 5611 5619 5629 5638 5642 5649 5658 5661 5663 5672 5680 5685 5689 5694 5701 5705 5708 5710 5713 5719 5727 5731 5734 5740 5747 5751 5751 5754 5760 5763 5766 5772 5775 5775 5777 5781 5785 5787 5789 5791 5794 5795 5799 5803 5805 5805 5807 5807 5808 5815 5822 5823 5825 5826 5827 5829 5830 5831 5833 5834 5836 5838 5840 5843 5844
5463 5468 5474 5479 5483 5486 5487 5491 5498 5503 5509 5517 5528 5540 5551 5558 5564 5572 5581 5581 5578 5584 5596 5605 5614 5626 5636 5641 5647 5652 5652 5659 5670 5674 5678 5683 5688 5694 5697 5700 5705 5710 5716 5720 5720 5724 5733 5741 5744 5746 5751 5755 5758 5763 5768 5771 5773 5775 5779 5782 5783 5787 5789 5791 5793 5794 5798 5801 5802 5804 5806 5806 5810 5819 5822 5822 5823 5824 5826 5828 5829 5830 5832 5834 5836 5837 5839 5841
5460 5466 5471 5476 5481 5484 5487 5493 5499 5503 5511 5520 5528 5537 5546 5554 5561 5569 5573 5567 5566 5579 5591 5599 5611 5625 5633 5638 5642 5644 5648 5658 5664 5666 5675 5680 5682 5685 5689 5695 5702 5708 5712 5714 5715 5724 5732 5736 5739 5745 5747 5748 5755 5761 5764 5768 5770 5772 5775 5778 5781 5785 5787 5788 5789 5790 5793 5797 5798 5802 5806 5804 5805 5815 5819 5819 5820 5822 5823 5825 5826 5827 5829 5831 5832 5833 5835 5837
5458 5463 5469 5474 5478 5482 5487 5494 5500 5505 5512 5521 5528 5536 5543 5551 5558 5562 5561 5557 5563 5577 5587 5597 5609 5617 5623 5629 5634 5640 5646 5654 5658 5664 5672 5674 5675 5679 5683 5692 5701 5705 5708 5712 5718 5725 5728 5732 5738 5740 5741 5746 5754 5757 5759 5764 5766 5768 5771 5773 5777 5781 5782 5784 5785 5787 5790 5792 5796 5801 5804 5801 5801 5809 5816 5817 5818 5820 5822 5823 5823 5824 5826 5828 5829 5829 5831 5833
5456 5462 5469 5473 5477 5481 5486 5492 5498 5505 5512 5518 5525 5533 5540 5546 5551 5551 5549 5549 5560 5574 5585 5595 5603 5608 5616 5622 5628 5635 5642 5648 5654 5660 5665 5666 5671 5676 5681 5692 5698 5698 5702 5708 5713 5717 5723 5729 5730 5730 5736 5745 5750 5752 5757 5760 5760 5764 5768 5769 5772 5775 5778 5780 5782 5785 5786 5788 5793 5798 5800 5799 5797 5803 5812 5815 5817 5819 5819 5820 5820 5820 5822 5824 5825 5826 5828 5829
5456 5462 5468 5473 5478 5482 5486 5490 5495 5503 5511 5516 5522 5530 5536 5540 5543 5541 5540 5548 5560 5571 5581 5590 5597 5605 5613 5618 5624 5631 5638 5644 5649 5654 5657 5661 5666 5669 5674 5681 5684 5688 5694 5699 5704 5710 5715 5719 5721 5727 5736 5741 5743 5746 5752 5754 5756 5761 5764 5766 5769 5771 5775 5777 5779 5781 5782 5785 5789 5792 5796 5797 5794 5799 5808 5814 5817 5817 5817 5818 5818 5817 5818 5820 5822 5823 5824 5825
5456 5462 5467 5472 5478 5483 5487 5491 5495 5502 5509 5514 5520 5526 5529 5532 5534 5534 5540 5551 5559 5565 5575 5585 5593 5602 5609 5615 5622 5629 5634 5638 5643 5648 5652 5656 5658 5661 5666 5670 5674 5679 5683 5688 5697 5704 5706 5710 5717 5726 5731 5733 5736 5740 5744 5747 5750 5755 5759 5763 5766 5767 5770 5772 5774 5776 5778 5782 5786 5787 5791 5794 5793 5797 5804 5810 5814 5814 5814 5815 5815 5815 5815 5817 5819 5820 5821 5821
5456 5462 5466 5471 5476 5481 5485 5491 5496 5501 5506 5511 5516 5521 5524 5525 5525 5531 5542 5550 5552 5561 5574 5585 5594 5602 5607 5610 5616 5623 5630 5633 5639 5644 5649 5652 5654 5657 5663 5669 5675 5678 5680 5686 5695 5700 5703 5706 5711 5716 5721 5725 5729 5733 5738 5742 5747 5752 5756 5759 5761 5761 5762 5764 5768 5771 5775 5779 5782 5782 5786 5790 5793 5796 5798 5804 5809 5810 5810 5812 5812 5812 5812 5813 5815 5817 5818 5819
5456 5461 5466 5471 5475 5479 5484 5489 5495 5500 5504 5507 5511 5516 5518 5519 5524 5533 5542 5545 5550 5561 5573 5583 5593 5599 5602 5606 5613 5621 5625 5628 5634 5640 5644 5647 5648 5650 5656 5663 5670 5675 5679 5685 5691 5695 5698 5697 5700 5708 5715 5720 5726 5732 5738 5744 5749 5752 5754 5755 5755 5755 5758 5762 5766 5770 5773 5776 5778 5779 5781 5786 5791 5794 5795 5798 5804 5806 5807 5808 5809 5809 5809 5810 5811 5813 5815 5817
5455 5460 5466 5471 5475 5478 5483 5487 5492 5498 5502 5505 5509 5511 5513 5517 5526 5534 5538 5544 5550 5558 5568 5579 5588 5592 5596 5603 5612 5617 5621 5624 5630 5635 5637 5640 5642 5646 5651 5656 5662 5667 5672 5678 5684 5691 5694 5693 5699 5709 5714 5718 5725 5731 5734 5738 5741 5744 5746 5746 5747 5752 5758 5760 5762 5766 5768 5769 5771 5774 5777 5783 5788 5790 5792 5794 5798 5802 5803 5804 5805 5806 5806 5807 5808 5809 5811 5813
5454 5459 5465 5470 5473 5477 5482 5486 5491 5496 5500 5504 5506 5508 5513 5521 5528 5533 5538 5546 5552 5557 5566 5575 5579 5582 5589 5597 5603 5608 5615 5621 5626 5629 5632 5636 5640 5644 5648 5653 5658 5663 5668 5675 5681 5687 5691 5694 5702 5709 5713 5717 5722 5724 5726 5730 5733 5736 5736 5736 5741 5749 5752 5753 5755 5758 5760 5761 5765 5770 5774 5779 5783 5785 5788 5791 5794 5798 5799 5800 5801 5802 5803 5804 5805 5806 5807 5808
5453 5458 5463 5468 5472 5476 5481 5485 5490 5494 5499 5502 5505 5509 5516 5522 5527 5532 5539 5547 5552 5556 5563 5568 5569 5574 5582 5588 5595 5602 5609 5615 5620 5622 5627 5632 5635 5639 5644 5649 5655 5659 5666 5675 5681 5686 5690 5693 5698 5703 5707 5713 5717 5720 5722 5726 5729 5730 5730 5735 5742 5744 5744 5747 5750 5752 5754 5756 5761 5767 5771 5774 5779 5782 5784 5787 5791 5793 5795 5796 5797 5798 5800 5800 5801 5803 5803 5804
5452 5457 5461 5466 5470 5475 5480 5484 5488 5493 5497 5500 5504 5510 5516 5520 5526 5532 5537 5543 5548 5552 5557 5561 5565 5571 5578 5583 5591 5599 5605 5609 5613 5617 5622 5626 5629 5634 5640 5645 5651 5657 5665 5673 5678 5681 5686 5689 5692 5696 5700 5704 5709 5712 5713 5716 5720 5723 5729 5735 5738 5738 5740 5744 5746 5749 5752 5754 5758 5764 5767 5769 5774 5779 5782 5784 5788 5789 5789 5792 5794 5795 5796 5797 5797 5798 5799 5800
5451 5455 5460 5464 5468 5473 5478 5482 5487 5491 5494 5498 5503 5508 5513 5519 5525 5529 5534 5539 5544 5548 5554 5558 5562 5569 5575 5581 5588 5596 5601 5605 5609 5613 5617 5621 5626 5633 5638 5643 5649 5655 5662 5668 5671 5676 5681 5683 5687 5691 5694 5698 5701 5701 5702 5706 5711 5717 5724 5727 5730 5732 5736 5739 5743 5746 5749 5751 5754 5758 5761 5765 5771 5776 5779 5782 5785 5785 5785 5787 5790 5791 5792 5793 5794 5794 5795 5796
5450 5454 5458 5463 5467 5471 5476 5480 5484 5488 5493 5499 5503 5507 5512 5517 5522 5526 5531 5536 5540 5544 5549 5554 5560 5565 5571 5578 5585 5591 5597 5601 5605 5609 5613 5619 5625 5630 5635 5640 5646 5653 5659 5663 5667 5672 5676 5678 5682 5686 5687 5689 5692 5694 5699 5705 5709 5713 5717 5719 5722 5725 5727 5732 5736 5738 5741 5744 5748 5751 5754 5762 5768 5772 5776 5779 5780 5781 5781 5782 5784 5787 5788 5789 5790 5790 5791 5792
5449 5453 5457 5461 5465 5470 5474 5479 5484 5488 5493 5497 5501 5505 5510 5514 5519 5523 5527 5532 5537 5541 5546 5552 5557 5561 5567 5574 5579 5584 5591 5596 5600 5604 5609 5615 5621 5627 5633 5639 5645 5651 5655 5657 5660 5665 5669 5672 5677 5679 5679 5683 5690 5696 5701 5703 5706 5712 5714 5716 5720 5721 5723 5726 5728 5733 5737 5741 5745 5747 5749 5758 5765 5768 5771 5775 5777 5778 5778 5778 5779 5781 5782 5783 5785 5786 5787 5788
5448 5452 5456 5461 5465 5469 5473 5478 5483 5487 5491 5494 5498 5503 5508 5513 5517 5520 5524 5528 5533 5537 5543 5549 5554 5558 5563 5569 5573 5579 5585 5591 5596 5600 5605 5613 5620 5627 5634 5638 5642 5647 5649 5652 5656 5661 5666 5669 5672 5674 5675 5680 5687 5692 5694 5697 5703 5707 5708 5712 5715 5716 5718 5723 5727 5734 5738 5740 5745 5745 5745 5754 5763 5764 5766 5771 5774 5774 5774 5774 5773 5774 5777 5778 5780 5782 5783 5784
5447 5452 5456 5460 5464 5467 5472 5476 5480 5485 5490 5494 5497 5501 5505 5509 5513 5517 5522 5526 5530 5535 5540 5545 5549 5554 5560 5565 5568 5573 5580 5587 5592 5597 5604 5611 5618 5625 5629 5633 5637 5641 5643 5647 5651 5655 5659 5662 5665 5669 5672 5675 5680 5685 5689 5692 5695 5696 5699 5705 5707 5709 5716 5721 5726 5731 5731 5734 5740 5739 5741 5751 5757 5758 5760 5765 5769 5771 5770 5769 5768 5768 5771 5773 5774 5777 5778 5780
5446 5451 5454 5458 5462 5466 5471 5475 5479 5483 5487 5490 5494 5499 5503 5506 5511 5516 5521 5525 5530 5534 5539 5543 5547 5553 5559 5563 5566 5570 5575 5581 5587 5594 5601 5606 5612 5618 5623 5628 5632 5634 5636 5640 5645 5650 5653 5654 5658 5663 5666 5668 5671 5674 5678 5682 5685 5690 5698 5703 5704 5709 5714 5716 5720 5723 5722 5728 5734 5733 5738 5747 5750 5752 5754 5758 5764 5767 5766 5765 5764 5763 5765 5767 5768 5771 5773 5775
5445 5449 5453 5457 5461 5465 5469 5473 5476 5480 5483 5488 5493 5497 5501 5505 5510 5514 5519 5523 5527 5531 5536 5541 5545 5551 5557 5560 5563 5566 5571 5576 5582 5589 5595 5600 5606 5612 5617 5623 5627 5630 5634 5639 5644 5649 5648 5648 5652 5655 5655 5656 5659 5665 5672 5679 5685 5690 5695 5698 5702 5706 5707 5709 5713 5712 5714 5724 5727 5726 5735 5743 5744 5746 5749 5753 5759 5762 5761 5761 5760 5759 5761 5762 5764 5766 5767 5770
5444 5448 5451 5455 5459 5464 5467 5471 5475 5479 5483 5488 5492 5496 5500 5505 5509 5513 5516 5519 5523 5527 5531 5535 5540 5547 5553 5555 5557 5561 5565 5571 5577 5584 5591 5595 5601 5608 5614 5620 5624 5628 5632 5636 5640 5642 5641 5643 5648 5650 5652 5657 5663 5668 5675 5681 5684 5686 5690 5693 5696 5697 5698 5700 5701 5701 5711 5720 5716 5719 5732 5736 5738 5744 5746 5748 5753 5755 5756 5756 5755 5756 5756 5757 5759 5761 5763 5765
5443 5447 5451 5455 5458 5462 5465 5470 5474 5478 5482 5485 5490 5494 5499 5502 5505 5509 5512 5516 5520 5525 5528 5531 5536 5542 5547 5550 5552 5557 5562 5566 5573 5581 5587 5592 5597 5604 5610 5615 5620 5624 5627 5631 5633 5635 5635 5637 5642 5648 5655 5661 5665 5669 5673 5677 5680 5684 5688 5690 5690 5691 5691 5691 5692 5698 5710 5709 5704 5717 5729 5729 5736 5744 5741 5740 5745 5748 5750 5751 5750 5751 5751 5751 5753 5755 5758 5760
5441 5446 5449 5454 5457 5461 5465 5469 5471 5474 5478 5482 5486 5490 5493 5497 5501 5506 5510 5514 5517 5521 5524 5528 5534 5540 5545 5547 5549 5553 5558 5563 5571 5579 5584 5589 5594 5600 5605 5610 5614 5618 5622 5625 5628 5629 5630 5633 5640 5646 5651 5656 5659 5663 5667 5671 5676 5680 5682 5684 5688 5689 5688 5689 5693 5701 5706 5701 5704 5721 5726 5725 5735 5740 5735 5734 5738 5740 5743 5744 5744 5745 5745 5746 5747 5749 5752 5755
5440 5443 5447 5450 5455 5459 5462 5465 5468 5471 5476 5480 5484 5488 5491 5496 5501 5505 5509 5511 5513 5518 5522 5526 5532 5539 5544 5547 5548 5551 5556 5562 5570 5577 5582 5586 5591 5595 5600 5604 5607 5612 5617 5620 5622 5624 5626 5631 5637 5642 5646 5650 5653 5656 5661 5665 5668 5670 5673 5677 5681 5682 5684 5687 5692 5698 5701 5698 5707 5720 5720 5721 5731 5732 5729 5730 5730 5733 5737 5737 5737 5739 5740 5740 5741 5743 5748 5751
5437 5441 5445 5449 5453 5455 5458 5461 5465 5470 5474 5478 5483 5487 5491 5496 5500 5503 5506 5508 5513 5517 5520 5525 5531 5536 5541 5544 5547 5552 5557 5563 5570 5575 5579 5582 5586 5591 5596 5599 5604 5608 5612 5614 5617 5620 5624 5627 5632 5638 5642 5644 5646 5650 5656 5658 5660 5663 5666 5670 5673 5675 5678 5681 5685 5691 5694 5695 5706 5713 5711 5716 5724 5722 5721 5725 5725 5728 5731 5730 5732 5735 5734 5733 5734 5739 5744 5747
5435 5439 5443 5447 5450 5453 5456 5460 5463 5467 5471 5477 5483 5487 5491 5496 5499 5501 5503 5507 5511 5515 5519 5526 5530 5533 5536 5539 5544 5553 5559 5562 5567 5571 5574 5577 5582 5586 5590 5594 5599 5602 5605 5609 5613 5617 5621 5623 5628 5633 5634 5636 5642 5647 5650 5653 5656 5656 5657 5662 5666 5669 5673 5677 5683 5689 5690 5694 5701 5703 5702 5713 5720 5716 5717 5722 5723 5724 5724 5724 5727 5727 5724 5725 5730 5735 5739 5741
5432 5436 5440 5444 5447 5450 5455 5458 5461 5466 5472 5478 5482 5485 5489 5493 5494 5496 5500 5505 5509 5514 5518 5522 5524 5526 5528 5531 5542 5556 5560 5560 5563 5566 5568 5571 5576 5578 5582 5587 5592 5595 5600 5605 5609 5612 5615 5618 5624 5627 5629 5635 5640 5641 5645 5649 5645 5642 5649 5659 5665 5668 5673 5677 5681 5685 5686 5689 5692 5694 5701 5712 5714 5711 5714 5717 5716 5717 5719 5719 5720 5717 5715 5719 5726 5731 5733 5735